Regional Weather Roundup
Issued by NWS

Home | Current Version | Previous Version | Text Only | Print | Product List | Glossary Off
Versions: 1 2 3 4 5 6 7 8 9 10 11 12 13 14 15 16 17 18 19 20 21 22 23 24 25 26 27 28 29 30 31 32 33 34 35 36 37 38 39 40 41 42 43 44 45 46 47 48 49 50

000
ASUS43 KFSD 191910
RWRSD

WEATHER ROUNDUP FOR SOUTH DAKOTA
NATIONAL WEATHER SERVICE SIOUX FALLS SD
200 PM CDT SAT AUG 19 2017

NOTE: "FAIR" INDICATES FEW OR NO CLOUDS BELOW 12,000 FEET WITH NO
SIGNIFICANT WEATHER AND/OR OBSTRUCTIONS TO VISIBILITY.


SDZ001>005-009-010-012>017-192000-
NORTHWEST AND NORTH CENTRAL SOUTH DAKOTA

CITY           SKY/WX    TMP DP  RH WIND       PRES   REMARKS
BUFFALO          N/A     87  39  18 NW20      29.81R
FAITH            N/A     94  47  20 VRB7      29.81S
MOBRIDGE       SUNNY     83  65  54 S12       29.76F
$$

SDZ012>016-024>037-041>051-057-063-072>074-192000-
SOUTHWEST AND SOUTH CENTRAL SOUTH DAKOTA

CITY           SKY/WX    TMP DP  RH WIND       PRES   REMARKS
RAPID CTY ARPT SUNNY     93  43  17 N10G20    29.86F
PIERRE         SUNNY     88  61  40 S15G22    29.77F
CUSTER         PTSUNNY   84  31  14 CALM      30.04S
ELLSWORTH AFB  SUNNY     91  46  21 N9        29.86F
PHILIP         SUNNY     96  51  21 VRB5      29.78F
PINE RIDGE     SUNNY     92  49  22 S5        29.88F
SPEARFISH      FAIR      88  41  19 NW10G21   29.93F
WINNER         FAIR      87  62  43 S18G24    29.83F
$$

SDZ004>011-016>023-039-040-192000-
NORTHEAST SOUTH DAKOTA

CITY           SKY/WX    TMP DP  RH WIND       PRES   REMARKS
ABERDEEN       SUNNY     81  61  50 S18       29.83F
WATERTOWN      SUNNY     77  60  55 S14       29.89F
BROOKINGS      SUNNY     76  61  59 S13       29.92F
SISSETON         N/A     80  62  54 S12       29.84F
$$

SDZ017-020-022-023-036>040-048>070-192000-
SOUTHEAST SOUTH DAKOTA

CITY           SKY/WX    TMP DP  RH WIND       PRES   REMARKS
SIOUX FALLS    SUNNY     78  63  59 S12G17    29.92F
HURON          SUNNY     80  60  50 S18G25    29.84F
CHAMBERLAIN    SUNNY     85  64  49 SE15G22   29.83F
MITCHELL       SUNNY     81  62  52 SE16G23   29.87F
YANKTON        SUNNY     80  63  55 E12       29.90F
$$

ABBREVIATIONS USED IN REMARKS
   TC - TEMPERATURE IN CELSIUS
  WCI - WIND CHILL INDEX
   HX - HEAT INDEX
  VSB - VISIBILITY





USA.gov is the U.S. government's official web portal to all federal, state and local government web resources and services.